Regional Weather Roundup
Issued by NWS

Home | Current Version | Previous Version | Text Only | Print | Product List | Glossary On
Versions: 1 2 3 4 5 6 7 8 9 10 11 12 13 14 15 16 17 18 19 20 21 22 23 24 25 26 27
000
ASUS45 KSLC 280810
RWRUT

UTAH REGIONAL WEATHER ROUNDUP
NATIONAL WEATHER SERVICE SALT LAKE CITY UT
200 AM MDT WED SEP 28 2016

UTZ001>011-023>025-280900-

NORTHERN UTAH

CITY           SKY/WX    TMP DP  RH WIND       PRES   REMARKS
BRIGHAM CITY     N/A     53  49  84 CALM      30.15S
HILL AFB       CLEAR     60  43  54 E10       30.16S
LOGAN          CLEAR     49  45  86 CALM      30.17S
OGDEN          CLEAR     59  44  57 E5        30.14S
PROVO AIRPORT  CLEAR     54  45  71 S3        30.17S
SALT LAKE CITY CLEAR     58  50  75 SE7       30.14S
VERNAL         CLEAR     51  43  74 W5        30.23R
WENDOVER       PTCLDY    54  45  71 CALM      30.15S
HEBER CITY     CLEAR     48  41  76 CALM      30.24R
WEST JORDAN    CLEAR     56  45  66 SW6       30.17R

$$

UTZ012>022-026-027-280900-

SOUTHERN/CENTRAL UTAH

CITY           SKY/WX    TMP DP  RH WIND       PRES   REMARKS
BLANDING       PTCLDY    55  34  44 N8        30.31S
BRYCE CANYON   CLEAR     38  34  85 W7        30.35S WCI  33
CEDAR CITY     PTCLDY    56  33  42 S6        30.20S
DELTA          CLEAR     52  43  71 N7        30.15S
MILFORD        CLEAR     56  35  45 S5        30.17R
MOAB/CYNLANDS  CLEAR     55  39  54 CALM      30.14S
PRICE          CLEAR     53  38  56 N10       30.23S
ST GEORGE      SUNNY     70  41  35 CALM      30.07R

$$

REGIONAL REPORTS     COLORADO/ARIZONA

CITY           SKY/WX    TMP DP  RH WIND       PRES   REMARKS
CRAIG, CO      CLOUDY    39  34  82 CALM      30.31R
GRAND JUNCTION CLEAR     56  37  49 E8        30.19R
RIFLE          CLEAR     50  41  71 CALM      30.26R
MONTROSE       CLEAR     50  38  63 S8        30.28R
CORTEZ         CLEAR     45  36  70 E3        30.26S
PAGE, AZ       PTCLDY    64  40  41 E3        30.15R
GRAND CANYON   CLOUDY    57  41  55 E6        30.29R
KINGMAN        PTCLDY    63  46  54 W3        30.06F
FLAGSTAFF      CLOUDY    46  46 100 CALM      30.29F

$$

REGIONAL REPORTS    NEVADA/IDAHO/WYOMING

CITY           SKY/WX    TMP DP  RH WIND       PRES   REMARKS
LAS VEGAS, NV  MOCLDY    77  40  26 CALM      29.97R
ELY            CLEAR     44  29  55 S10       30.25R
ELKO           CLEAR     52  40  63 NE5       30.15S
POCATELLO, ID  CLEAR     48  44  86 CALM      30.17R
BURLEY         CLEAR     48  46  93 NW3       30.10S
EVANSTON, WY   CLOUDY    53  37  54 SE6       30.32S
ROCK SPRINGS   CLOUDY    52  37  56 E5        30.31S

$$




USA.gov is the U.S. government's official web portal to all federal, state and local government web resources and services.